TimeEDT,TemperatureF,Dew PointF,Humidity,Sea Level PressureIn,VisibilityMPH,Wind Direction,Wind SpeedMPH,Gust SpeedMPH,PrecipitationIn,Events,Conditions,WindDirDegrees,DateUTC
12:51 AM,51.1,36.0,56,29.94,10.0,NNW,9.2,28.8,N/A,,Partly Cloudy,340,2013-10-24 04:51:00
1:51 AM,48.9,37.9,66,29.95,10.0,Variable,4.6,-,N/A,,Clear,0,2013-10-24 05:51:00
2:51 AM,48.9,37.0,64,29.97,10.0,WNW,5.8,-,N/A,,Clear,300,2013-10-24 06:51:00
3:51 AM,48.0,36.0,63,29.97,10.0,NW,4.6,-,N/A,,Clear,310,2013-10-24 07:51:00
4:51 AM,48.0,36.0,63,29.99,10.0,NW,5.8,-,N/A,,Clear,320,2013-10-24 08:51:00
5:51 AM,46.9,35.1,63,30.02,10.0,Variable,4.6,-,N/A,,Clear,0,2013-10-24 09:51:00
6:51 AM,46.9,36.0,66,30.05,10.0,Calm,Calm,-,N/A,,Clear,0,2013-10-24 10:51:00
7:51 AM,46.9,37.9,71,30.06,10.0,Calm,Calm,-,N/A,,Clear,0,2013-10-24 11:51:00
8:51 AM,48.9,39.0,69,30.09,10.0,West,6.9,-,N/A,,Clear,280,2013-10-24 12:51:00
9:51 AM,52.0,33.1,49,30.09,10.0,NW,9.2,-,N/A,,Clear,320,2013-10-24 13:51:00
10:51 AM,53.1,35.1,50,30.09,10.0,Variable,6.9,-,N/A,,Clear,0,2013-10-24 14:51:00
11:51 AM,54.0,28.0,37,30.08,10.0,West,8.1,-,N/A,,Clear,260,2013-10-24 15:51:00
12:51 PM,55.9,28.9,36,30.06,10.0,West,9.2,-,N/A,,Clear,280,2013-10-24 16:51:00
1:51 PM,55.0,30.0,38,30.04,10.0,Variable,5.8,-,N/A,,Partly Cloudy,0,2013-10-24 17:51:00
2:51 PM,55.0,28.9,37,30.04,10.0,WNW,4.6,-,N/A,,Overcast,290,2013-10-24 18:51:00
3:51 PM,55.9,28.9,36,30.04,10.0,NW,10.4,16.1,N/A,,Overcast,310,2013-10-24 19:51:00
4:51 PM,54.0,30.0,40,30.06,10.0,West,5.8,-,N/A,,Overcast,280,2013-10-24 20:51:00
5:51 PM,53.1,32.0,45,30.08,10.0,West,6.9,-,N/A,,Overcast,270,2013-10-24 21:51:00
6:51 PM,52.0,33.1,49,30.10,10.0,Variable,5.8,-,N/A,,Overcast,0,2013-10-24 22:51:00
7:51 PM,52.0,33.1,49,30.11,10.0,Variable,4.6,-,N/A,,Mostly Cloudy,0,2013-10-24 23:51:00
8:51 PM,50.0,34.0,54,30.12,10.0,WSW,4.6,-,N/A,,Mostly Cloudy,250,2013-10-25 00:51:00
9:51 PM,50.0,34.0,54,30.14,10.0,West,3.5,-,N/A,,Partly Cloudy,260,2013-10-25 01:51:00
10:51 PM,48.9,34.0,56,30.14,10.0,West,4.6,-,N/A,,Clear,270,2013-10-25 02:51:00
11:51 PM,48.0,36.0,63,30.15,10.0,Variable,4.6,-,N/A,,Clear,0,2013-10-25 03:51:00